This is the latest recevied weather packets stored in our database for station/object WX1NWA. If no packets are shown the sender has not sent any weather packets the latest 10 day(s).
| Time | Temp. | Humidity | Pressure | Rain* | Wind** | Luminosity | Snow |
|---|---|---|---|---|---|---|---|
| 1776980990 | 18.33° C | 93% | 1012.4 hPa | 0 mm | - | 151 W/m² | - |
| 1776980687 | 18.33° C | 93% | 1012.2 hPa | 0 mm | - | 108 W/m² | - |
| 1776980384 | 18.33° C | 93% | 1012.4 hPa | 0 mm | - | 102 W/m² | - |
| 1776980079 | 18.33° C | 92% | 1012.4 hPa | 0 mm | - | 151 W/m² | - |
| 1776979775 | 18.33° C | 92% | 1012.4 hPa | 0 mm | - | 135 W/m² | - |
| 1776979473 | 18.33° C | 92% | 1012.7 hPa | 0 mm | - | 157 W/m² | - |
| 1776979168 | 18.33° C | 93% | 1012.7 hPa | 0 mm | - | 93 W/m² | - |
| 1776978865 | 18.33° C | 93% | 1012.9 hPa | 0 mm | - | 81 W/m² | - |
| 1776978562 | 17.78° C | 93% | 1012.8 hPa | 0 mm | - | 217 W/m² | - |
| 1776978260 | 17.78° C | 94% | 1013 hPa | 0 mm | - | 155 W/m² | - |
| 1776977957 | 17.78° C | 94% | 1012.9 hPa | 0 mm | - | 115 W/m² | - |
| 1776977654 | 17.78° C | 95% | 1013.1 hPa | 0 mm | - | 127 W/m² | - |
| 1776977349 | 17.78° C | 94% | 1013.2 hPa | 0 mm | - | 78 W/m² | - |
| 1776977047 | 17.78° C | 94% | 1013.4 hPa | 0 mm | - | 111 W/m² | - |
| 1776976742 | 17.78° C | 95% | 1013.3 hPa | 0 mm | - | 92 W/m² | - |
| 1776976438 | 17.78° C | 94% | 1013.5 hPa | 0 mm | - | 122 W/m² | - |
| 1776976133 | 17.22° C | 95% | 1013.6 hPa | 0 mm | - | 138 W/m² | - |
| 1776975830 | 17.22° C | 95% | 1013.9 hPa | 0 mm | - | 88 W/m² | - |
| 1776975527 | 17.22° C | 95% | 1013.7 hPa | 0 mm | - | 75 W/m² | - |
| 1776975224 | 17.22° C | 95% | 1014.3 hPa | 0 mm | - | 49 W/m² | - |
| 1776974920 | 17.22° C | 95% | 1014 hPa | 0 mm | - | 56 W/m² | - |
| 1776974618 | 17.22° C | 95% | 1014 hPa | 0 mm | - | - | - |
| 1776974314 | 17.78° C | 95% | 1013.7 hPa | 0 mm | - | 73 W/m² | - |
| 1776974012 | 17.22° C | 96% | 1013.7 hPa | 0 mm | - | 116 W/m² | - |
| 1776973709 | 17.22° C | 96% | 1014 hPa | 0 mm | - | 154 W/m² | - |
* Rain latest hour (hover to see other rain measurements)
** Current wind speed in m/s (hover to see current wind gust speed)